Погода в Ясиноватой

Украина / Донецкая область     48°07′47″N   37°51′33″E
темп.,
°C
ветер,
м/с
пор.,
м/с
влажн.,
%
обл.,
%
осадки,
мм/ч
давл.,
гПа
погр.,
м
26 октября, вт
вт2600:00+1всв11490 0.0 103411
03:000св11500 0.0 103411
06:00−1св11550 0.0 103511
09:00+3юв11436 0.0 1034168
12:00+7ююв22309 0.0 1034796
15:00+8ю22245 0.0 1032961
18:00+5ю22325 0.0 103215
21:00+4ю22375 0.0 103215
27 октября, ср
ср2700:00+2ю33425 0.0 103121
03:00+1ююв33455 0.0 103124
06:00+1ю22485 0.0 103016
09:00+4ююв34365 0.0 1030223
12:00+9ю34250 0.0 1028635
15:00+10ююз34230 0.0 1025826
18:00+6ююз22310 0.0 102514
21:00+4зюз22370 0.0 102512
28 октября, чт
чт2800:00+3з2241100 0.0 102511
03:00+3з2255100 0.0 102522
06:00+3з2263100 0.0 102426
09:00+6з3565100 0.0 1025176
12:00+10з5655100 0.0 1024550
15:00+13з574552 0.0 1022967
18:00+10зюз485586 0.0 1021150
21:00+9зюз5136297 0.0 1021301
29 октября, пт
пт2900:00+9з4106885 0.1 1020290
03:00+10сз497851 0.1 1021433
06:00+7ссз38945 0.0 1023173
09:00+9ссз3778100 0.0 1024206
12:00+12ссв566316 0.0 1026943
15:00+10св666499 0.1 1028964
18:00+7св34700 0.0 103068
21:00+6всв35695 0.0 103266
30 октября, сб
сб3000:00+4в33700 0.0 103332
03:00+3всв22721 0.0 103423
06:00+2в22741 0.0 103523
09:00+5вюв35590 0.0 1036250
12:00+9вюв44360 0.0 1036660
15:00+11вюв34260 0.0 1035789
18:00+7вюв33330 0.0 103528
21:00+5юв34364 0.0 103652